Wright-Patt AFB, OH

6:11 AM EDT on March 30, 2017 (GMT -0400)
Wright-Patterson Air Force Base

Weather History for KFFO - October, 2011

Change the Weather History Date:

Thursday, October 6, 2011

  Actual Average Record
Temperature  
Mean Temperature 63 °F -  
Max Temperature 79 °F 67 °F 87 °F (2007)
Min Temperature 47 °F 44 °F 32 °F (2004)
Degree Days  
Heating Degree Days 2    
Growing Degree Days 13 (Base 50)    
Moisture  
Dew Point 52 °F    
Average Humidity 76    
Maximum Humidity 100    
Minimum Humidity 41    
Precipitation  
Precipitation 0.00 in - - ()
Sea Level Pressure  
Sea Level Pressure 30.30 in    
Wind  
Wind Speed 1 mph (East)    
Max Wind Speed 6 mph    
Max Gust Speed -    
Visibility 10 miles    
Events Fog    
Averages and records for this station are not official NWS values.
T = Trace of Precipitation, MM = Missing Value Source: NWS Daily Summary

Daily Weather History Graph

Daily Weather History Graph

Search for Another Location

Airport or City:

Trip Planner

Search our weather history database for the weather conditions in past years. The results will help you decide how hot, cold, wet, or windy it might be!

Date:

Astronomy

Oct. 06, 2011 Rise Set
Actual Time 7:37 AM EDT 7:11 PM EDT
Civil Twilight 7:10 AM EDT 7:37 PM EDT
Nautical Twilight 6:38 AM EDT 8:09 PM EDT
Astronomical Twilight 6:07 AM EDT 8:40 PM EDT
Moon 4:23 PM EDT (10/6) 2:25 AM EDT (10/6)
Length of Visible Light 12h 27m
Length of Day
11h 33m
Waxing Gibbous, 75% of the Moon is Illuminated
Oct 6
Waxing Gibbous
Oct 11
Full
Oct 19
Last Quarter
Oct 26
New
Nov 2
First Quarter

Hourly Weather History & Observations

Time (EDT) Temp. Dew Point Humidity Pressure Visibility Wind Dir Wind Speed Gust Speed Precip Events Conditions
12:55 AM 52.3 °F 49.8 °F 91% 30.27 in 10.0 mi Calm Calm - N/A   Clear
1:55 AM 52.0 °F 48.9 °F 89% 30.27 in 10.0 mi Calm Calm - N/A   Clear
2:55 AM 49.8 °F 48.2 °F 94% 30.28 in 10.0 mi NE 3.5 mph - N/A   Clear
3:55 AM 50.2 °F 48.2 °F 93% 30.28 in 10.0 mi Calm Calm - N/A   Clear
4:55 AM 48.6 °F 47.7 °F 97% 30.29 in 10.0 mi Calm Calm - N/A Fog Shallow Fog
5:55 AM 48.0 °F 46.6 °F 95% 30.30 in 10.0 mi Calm Calm - N/A Fog Shallow Fog
6:23 AM 48.2 °F 48.2 °F 100% 30.30 in 10.0 mi Calm Calm - N/A Fog Shallow Fog
6:55 AM 49.1 °F 47.5 °F 94% 30.30 in 10.0 mi Calm Calm - N/A Fog Shallow Fog
7:55 AM 47.7 °F 47.3 °F 99% 30.32 in 10.0 mi Calm Calm - N/A Fog Shallow Fog
8:55 AM 51.8 °F 51.1 °F 97% 30.33 in 10.0 mi Calm Calm - N/A   Partly Cloudy
9:55 AM 58.1 °F 54.1 °F 87% 30.34 in 10.0 mi Calm Calm - N/A   Partly Cloudy
10:55 AM 64.2 °F 56.1 °F 75% 30.34 in 10.0 mi Calm Calm - N/A   Clear
11:55 AM 70.7 °F 57.0 °F 62% 30.33 in 10.0 mi Calm Calm - N/A   Clear
12:55 PM 73.6 °F 57.2 °F 56% 30.32 in 10.0 mi Calm Calm - N/A   Clear
1:55 PM 75.9 °F 55.0 °F 48% 30.31 in 10.0 mi Calm Calm - N/A   Clear
2:55 PM 77.5 °F 53.2 °F 43% 30.29 in 10.0 mi SE 3.5 mph - N/A   Clear
3:55 PM 78.4 °F 53.1 °F 41% 30.29 in 10.0 mi Variable 3.5 mph - N/A   Clear
4:55 PM 79.3 °F 53.8 °F 41% 30.28 in 10.0 mi ENE 4.6 mph - N/A   Clear
5:55 PM 77.2 °F 53.1 °F 43% 30.28 in 10.0 mi East 5.8 mph - N/A   Clear
6:55 PM 73.9 °F 52.5 °F 47% 30.28 in 10.0 mi East 4.6 mph - N/A   Clear
7:55 PM 65.1 °F 54.0 °F 67% 30.30 in 10.0 mi ESE 3.5 mph - N/A   Clear
8:55 PM 61.9 °F 55.6 °F 80% 30.31 in 10.0 mi Calm Calm - N/A   Clear
9:55 PM 58.6 °F 54.5 °F 86% 30.31 in 10.0 mi Calm Calm - N/A   Clear
10:55 PM 55.9 °F 53.6 °F 92% 30.32 in 10.0 mi Calm Calm - N/A   Clear
11:55 PM 54.3 °F 52.7 °F 94% 30.32 in 9.0 mi Calm Calm - N/A Fog Patches of Fog